Wind_Speed
31 31 32 32 32 33 33 34 34 34 35 35 35 34 34 34 33 34 34 33 32 32 32 31 30 29 29 28 28 28 28 28 29 30 30 30 31 32
30 30 31 31 31 31 34 34 34 35 35 36 37 36 36 36 35 34 34 34 34 33 31 31 30 29 28 28 28 28 29 29 29 30 30 30 31 32
28 29 30 30 31 31 32 32 33 33 34 35 35 36 34 34 35 35 34 35 35 34 32 30 29 28 27 27 27 28 29 29 29 30 31 31 32 32
28 29 30 30 31 31 31 32 32 32 32 32 32 32 32 32 32 32 33 33 33 32 30 28 28 27 27 27 27 28 28 29 30 30 31 31 32 32
27 27 28 28 29 30 30 30 30 29 29 29 29 30 30 31 31 31 31 30 30 28 26 26 26 25 26 27 27 28 28 29 30 30 31 32 32 32
24 24 24 23 24 25 25 26 27 27 28 28 28 27 27 27 27 26 25 24 24 23 22 23 23 24 25 26 27 28 29 29 30 31 31 32 33 32
19 20 20 21 22 22 22 22 23 24 24 24 25 24 24 23 21 21 20 20 19 19 19 21 22 23 25 26 26 27 28 28 29 30 31 31 32 32
17 17 17 17 19 19 19 18 17 17 16 17 18 18 18 17 16 16 16 15 16 17 19 20 21 22 23 23 24 25 26 26 27 28 28 29 29 30
14 15 14 14 14 15 15 15 15 14 13 13 13 13 13 13 13 13 13 14 15 16 17 18 19 20 21 22 23 24 25 25 27 27 27 28 28 29
12 12 12 12 12 12 13 12 12 13 12 12 13 12 12 11 11 12 13 13 14 15 17 18 19 19 20 20 21 22 23 24 25 25 25 25 26 26
9 9 9 10 10 10 11 11 11 11 11 10 10 10 9 9 10 11 12 13 14 15 16 16 16 17 17 18 19 19 20 21 21 21 21 21 21 22
7 8 8 8 9 10 10 10 9 9 9 9 9 9 9 9 9 10 10 11 12 12 13 13 14 14 15 15 16 16 17 17 17 17 17 18 18 18
6 7 7 8 8 9 9 9 8 8 8 8 8 8 8 8 8 8 8 9 10 10 10 11 11 11 11 12 12 13 14 14 14 14 14 15 15 16
5 6 6 7 7 8 8 8 7 7 6 6 7 6 6 6 6 5 5 6 6 6 6 6 7 7 8 8 9 10 11 11 11 11 11 12 13 13
6 6 6 7 7 7 7 6 6 6 6 5 5 5 5 5 4 3 2 2 2 2 3 3 4 4 5 6 7 8 9 9 9 9 10 10 11 11
8 8 8 7 7 7 6 5 5 5 5 5 5 4 4 4 3 2 1 0 0 1 1 2 3 4 4 6 7 8 9 9 9 10 10 11 11 12
10 9 9 8 8 7 6 6 6 6 5 5 5 4 4 4 4 3 2 2 2 1 2 3 4 4 5 7 7 8 9 10 10 10 11 12 13 13
13 12 11 10 10 9 8 8 7 6 6 6 6 5 5 5 5 4 4 3 3 2 3 3 4 5 6 7 8 9 9 10 11 12 12 13 13 14
14 13 12 11 11 10 9 9 8 8 7 7 7 7 6 6 5 4 4 3 3 3 3 4 4 5 6 7 8 9 10 11 11 12 13 13 14 15
15 14 13 13 12 11 11 10 9 9 9 8 8 7 6 6 5 4 4 4 3 3 4 4 5 5 6 7 8 9 10 11 12 12 13 14 15 15
14 14 13 13 12 11 11 11 10 10 9 8 7 7 6 6 5 5 4 4 4 4 4 4 5 5 6 7 8 9 10 11 12 12 13 14 15 15
13 13 12 12 11 11 10 10 9 9 8 8 7 7 7 6 5 5 4 4 3 3 4 4 5 5 7 8 9 10 10 11 12 13 14 15 16 16
12 12 12 11 11 10 9 9 9 8 8 7 7 6 5 5 4 3 3 3 3 4 4 4 5 6 7 8 9 10 11 11 12 13 14 15 16 17
Wind_Direction
249 250 251 250 249 249 250 250 250 251 252 254 255 256 257 258 257 257 256 256 257 258 259 259 260 261 263 266 268 269 270 271 271 271 270 270 271 271
250 251 251 251 250 251 251 251 252 253 254 255 256 258 261 259 258 258 257 256 256 256 256 258 260 262 264 265 268 269 270 271 272 272 272 272 272 272
250 251 252 253 251 252 252 253 253 253 255 257 257 257 259 259 257 256 257 257 257 255 256 258 259 263 265 267 268 270 271 273 274 275 275 274 274 274
251 252 253 253 252 252 252 253 255 255 256 257 256 254 254 255 255 255 256 255 255 255 255 256 260 262 265 267 270 272 274 275 276 277 277 277 276 276
252 252 252 253 252 251 252 253 254 254 253 254 254 252 252 253 256 256 257 255 254 254 255 258 261 265 268 270 272 274 276 277 277 277 277 278 279 278
250 250 249 249 249 248 250 251 251 251 251 251 250 250 251 252 252 254 254 254 254 253 256 260 263 268 271 273 275 276 278 279 279 279 279 279 279 278
246 246 247 246 244 244 246 246 246 246 246 246 245 246 248 247 246 246 249 251 252 255 260 264 267 270 274 276 278 279 280 281 281 282 281 279 278 277
245 243 242 243 241 239 240 239 238 238 238 239 240 241 243 245 246 246 248 252 257 261 266 269 272 275 277 279 281 282 282 283 284 283 282 280 278 277
240 240 237 235 234 232 230 228 226 227 230 233 235 236 237 241 244 247 253 257 260 265 269 273 276 280 281 283 284 285 285 285 285 284 281 280 280 280
228 226 225 228 228 228 226 223 223 222 224 229 233 237 239 241 243 248 253 259 266 270 272 276 279 283 286 287 288 288 288 288 287 285 284 283 282 282
215 214 216 221 220 218 217 216 220 222 223 226 230 234 237 241 246 252 258 264 269 274 277 281 284 287 290 293 294 295 294 294 293 291 289 287 287 287
209 207 207 204 202 204 206 207 211 214 214 220 225 229 234 240 247 253 261 268 274 279 282 285 288 291 294 296 298 300 302 302 300 297 295 294 293 293
194 196 197 195 193 194 200 205 206 208 211 216 222 226 231 237 243 252 263 271 278 285 289 291 291 293 297 300 303 309 311 309 305 303 302 301 301 301
164 168 174 179 180 183 186 189 193 199 205 209 214 219 224 230 239 250 264 277 286 292 297 300 301 303 308 311 318 322 324 322 319 319 320 319 316 315
132 141 150 159 165 169 175 179 183 187 193 201 204 207 211 216 223 234 256 284 300 308 317 324 328 329 331 336 340 346 346 344 344 345 345 343 339 335
110 124 132 140 145 153 161 167 170 177 183 186 187 188 190 191 192 188 183 152 29 13 1 354 351 352 358 359 357 357 1 3 360 355 352 352 351 349
95 108 116 123 127 129 130 134 143 153 162 166 166 164 161 159 155 142 120 100 87 66 36 15 8 8 7 5 5 7 7 8 6 2 359 356 354 351
86 92 98 107 110 111 112 117 121 125 131 138 142 143 140 141 139 127 112 98 81 61 37 28 23 16 11 9 9 9 7 6 5 3 1 359 357 355
82 86 90 94 97 98 99 104 106 106 110 116 121 124 123 124 125 119 107 91 71 55 45 37 29 22 16 12 10 7 6 5 5 4 3 1 359 358
80 83 86 88 90 92 94 95 97 100 103 107 110 114 115 113 111 105 96 85 71 58 47 38 28 20 13 8 5 4 4 4 3 2 1 0 360 359
77 80 83 85 87 89 91 92 93 96 99 102 103 104 106 106 104 98 90 80 68 56 44 31 20 12 7 5 4 3 2 2 2 1 1 1 360 358
73 76 78 81 83 86 88 90 90 91 93 95 97 98 99 99 97 91 81 69 54 40 27 17 10 4 2 2 2 2 3 3 2 2 1 1 1 360
69 72 75 78 80 81 83 86 87 88 89 91 92 94 93 91 85 74 59 44 30 19 10 3 359 358 358 359 360 1 1 2 1 1 0 359 358 357
Height
5823 5825 5826 5828 5829 5831 5833 5834 5836 5837 5838 5839 5841 5841 5842 5844 5845 5846 5847 5848 5848 5849 5849 5850 5850 5849 5849 5849 5848 5848 5847 5846 5845 5844 5843 5842 5841 5840
5815 5817 5818 5820 5821 5823 5824 5825 5827 5828 5829 5831 5832 5833 5834 5835 5836 5837 5838 5839 5840 5841 5841 5842 5842 5842 5842 5841 5841 5840 5840 5839 5838 5837 5836 5835 5834 5832
5807 5809 5810 5811 5813 5814 5815 5817 5818 5819 5821 5822 5823 5824 5825 5826 5827 5829 5830 5831 5832 5832 5833 5833 5834 5834 5834 5834 5834 5833 5832 5831 5830 5830 5828 5827 5826 5825
5800 5801 5802 5804 5805 5806 5807 5809 5810 5811 5813 5813 5815 5816 5817 5818 5819 5821 5821 5822 5823 5824 5825 5826 5826 5827 5827 5826 5826 5826 5825 5824 5823 5822 5821 5820 5818 5817
5792 5793 5795 5796 5797 5798 5799 5801 5802 5803 5805 5806 5807 5808 5809 5810 5812 5813 5814 5815 5816 5817 5818 5819 5819 5819 5819 5819 5819 5818 5817 5816 5815 5814 5813 5812 5810 5809
5785 5786 5787 5788 5790 5791 5792 5793 5795 5797 5798 5799 5800 5801 5802 5804 5805 5806 5807 5808 5809 5810 5811 5812 5813 5813 5813 5813 5812 5811 5810 5809 5807 5806 5805 5803 5802 5800
5778 5779 5781 5782 5783 5785 5786 5787 5789 5790 5791 5793 5794 5796 5797 5798 5799 5800 5802 5803 5804 5805 5806 5807 5807 5807 5806 5806 5805 5804 5803 5801 5800 5798 5796 5795 5793 5792
5773 5774 5775 5777 5778 5779 5781 5782 5784 5785 5786 5788 5789 5790 5792 5793 5795 5796 5797 5798 5799 5801 5801 5801 5801 5801 5800 5799 5798 5797 5795 5794 5792 5790 5788 5787 5785 5784
5768 5770 5771 5772 5773 5775 5776 5778 5779 5781 5783 5784 5785 5786 5788 5789 5791 5792 5793 5794 5795 5796 5796 5796 5796 5795 5794 5793 5791 5790 5788 5786 5784 5782 5781 5779 5777 5776
5764 5766 5767 5768 5770 5772 5773 5775 5776 5778 5779 5781 5782 5784 5785 5786 5788 5789 5790 5791 5791 5791 5792 5791 5790 5789 5788 5787 5785 5783 5781 5779 5777 5775 5773 5771 5770 5768
5761 5762 5764 5766 5768 5769 5771 5773 5774 5775 5777 5779 5780 5781 5783 5784 5785 5786 5787 5787 5787 5787 5787 5786 5785 5784 5783 5781 5779 5777 5775 5772 5770 5768 5766 5764 5763 5761
5759 5760 5762 5764 5766 5767 5769 5771 5772 5773 5775 5777 5778 5779 5781 5782 5783 5784 5784 5784 5784 5783 5782 5781 5780 5779 5778 5776 5774 5772 5769 5767 5764 5762 5760 5759 5757 5755
5758 5759 5761 5762 5764 5766 5768 5769 5770 5772 5773 5775 5776 5777 5779 5780 5780 5781 5781 5781 5780 5779 5778 5777 5777 5776 5774 5773 5770 5768 5765 5763 5760 5758 5756 5754 5752 5750
5758 5759 5760 5762 5764 5765 5767 5768 5770 5771 5772 5773 5775 5776 5777 5778 5778 5779 5779 5778 5777 5776 5775 5775 5774 5773 5771 5770 5768 5765 5762 5760 5757 5755 5753 5751 5748 5746
5758 5759 5761 5762 5764 5765 5767 5768 5769 5770 5772 5773 5773 5774 5775 5776 5777 5777 5777 5776 5775 5775 5774 5773 5772 5771 5770 5768 5766 5764 5761 5758 5756 5754 5751 5749 5746 5744
5761 5761 5762 5763 5765 5766 5767 5768 5769 5770 5771 5772 5773 5774 5774 5775 5776 5776 5776 5776 5775 5775 5774 5773 5772 5771 5769 5768 5766 5764 5761 5758 5756 5753 5751 5748 5745 5743
5764 5764 5765 5766 5767 5767 5768 5769 5770 5770 5771 5772 5773 5774 5774 5775 5775 5776 5776 5775 5775 5775 5774 5773 5772 5771 5769 5767 5765 5763 5761 5758 5756 5753 5751 5748 5745 5742
5768 5768 5768 5769 5769 5770 5770 5771 5771 5772 5772 5773 5773 5774 5775 5775 5776 5776 5776 5776 5775 5775 5774 5773 5772 5771 5770 5768 5766 5763 5761 5759 5756 5753 5750 5748 5745 5742
5773 5773 5773 5773 5773 5773 5773 5773 5774 5774 5774 5774 5775 5775 5776 5776 5777 5777 5777 5776 5776 5775 5775 5774 5773 5771 5770 5768 5766 5764 5761 5759 5756 5753 5750 5747 5744 5741
5779 5778 5777 5777 5777 5777 5777 5777 5776 5776 5776 5777 5777 5777 5778 5778 5778 5778 5778 5777 5777 5776 5775 5774 5773 5771 5770 5768 5766 5764 5761 5759 5756 5753 5750 5747 5743 5740
5783 5783 5782 5781 5781 5781 5780 5780 5780 5780 5780 5779 5779 5779 5779 5779 5779 5779 5778 5778 5777 5777 5776 5774 5773 5771 5770 5768 5766 5764 5761 5758 5755 5753 5749 5746 5743 5739
5788 5787 5786 5786 5785 5784 5784 5783 5783 5783 5782 5782 5782 5781 5781 5781 5780 5780 5779 5779 5778 5777 5776 5774 5773 5771 5769 5768 5765 5763 5760 5758 5755 5752 5749 5746 5742 5738
5792 5791 5790 5789 5788 5788 5787 5787 5786 5785 5785 5784 5784 5783 5783 5782 5782 5781 5780 5779 5778 5777 5775 5774 5772 5771 5769 5767 5764 5762 5760 5757 5754 5751 5748 5745 5741 5738